WA6MHA-11 Weather Reports


Display with metric or nautical units.
time (UTC)temp
F
wind
direction
speed
MPH
gust
MPH
rain 1hr
in
rain 24hr
in
rain mn
in
humidity
%
barometer
mb
20260831103050 66 135 2.0 2.0 0.00 0.00 0.00 45 1014.3
20260831102246 66 135 1.0 2.0 0.00 0.00 0.00 45 1014.2
20260831101845 67 121 2.0 2.0 0.00 0.00 0.00 45 1014.2
20260831101042 67 135 2.0 2.0 0.00 0.00 0.00 44 1014.4
20260831100641 67 139 2.0 2.0 0.00 0.00 0.00 44 1014.4
20260831100240 67 135 2.0 2.0 0.00 0.00 0.00 44 1014.3
20260831095437 67 182 1.0 2.0 0.00 0.00 0.00 44 1014.2
20260831095036 67 148 1.0 2.0 0.00 0.00 0.00 44 1014.2
20260831094635 67 173 1.0 2.0 0.00 0.00 0.00 44 1014.3
20260831094233 67 135 1.0 1.0 0.00 0.00 0.00 44 1014.3
20260831093832 67 135 0.0 0.0 0.00 0.00 0.00 44 1014.3
20260831093431 67 135 0.0 1.0 0.00 0.00 0.00 44 1014.3
20260831093029 67 135 0.0 1.0 0.00 0.00 0.00 44 1014.2
20260831092632 67 137 1.0 2.0 0.00 0.00 0.00 44 1014.2
20260831091826 67 135 2.0 4.0 0.00 0.00 0.00 44 1014.1
20260831090221 67 177 1.0 3.0 0.00 0.00 0.00 43 1014.1
20260831085819 67 135 0.0 2.0 0.00 0.00 0.00 43 1014.1
20260831085418 67 189 1.0 3.0 0.00 0.00 0.00 43 1014.1
20260831084616 68 135 2.0 3.0 0.00 0.00 0.00 43 1014.2
20260831083812 68 186 0.0 2.0 0.00 0.00 0.00 43 1014.2
20260831083644 68 175 2.0 3.0 0.00 0.00 0.00 43 1014.2
20260831083414 68 175 2.0 3.0 0.00 0.00 0.00 43 1014.2
20260831082609 68 191 0.0 2.0 0.00 0.00 0.00 42 1014.2
20260831082208 68 137 2.0 3.0 0.00 0.00 0.00 42 1014.1
20260831081806 68 135 2.0 2.0 0.00 0.00 0.00 42 1014.1
20260831081441 68 157 1.0 3.0 0.00 0.00 0.00 42 1014.0
20260831081406 68 157 1.0 3.0 0.00 0.00 0.00 42 1014.0
20260831080603 68 135 2.0 2.0 0.00 0.00 0.00 42 1014.0
20260831080201 68 139 2.0 2.0 0.00 0.00 0.00 42 1014.0
20260831075800 68 135 2.0 2.0 0.00 0.00 0.00 42 1013.9
20260831075358 68 114 1.0 2.0 0.00 0.00 0.00 42 1013.9
20260831074957 68 135 1.0 2.0 0.00 0.00 0.00 42 1014.0
20260831074557 69 135 1.0 2.0 0.00 0.00 0.00 42 1013.9
20260831074155 69 135 1.0 2.0 0.00 0.00 0.00 42 1014.0
20260831073754 69 135 2.0 3.0 0.00 0.00 0.00 41 1013.8
20260831073353 69 117 3.0 3.0 0.00 0.00 0.00 41 1013.8
20260831072951 69 137 2.0 3.0 0.00 0.00 0.00 41 1013.7
20260831072549 69 135 3.0 4.0 0.00 0.00 0.00 41 1013.7
20260831072148 69 126 3.0 3.0 0.00 0.00 0.00 41 1013.7
20260831071747 69 135 1.0 2.0 0.00 0.00 0.00 41 1013.6
20260831071346 69 114 1.0 3.0 0.00 0.00 0.00 41 1013.7
20260831070946 69 137 1.0 3.0 0.00 0.00 0.00 41 1013.7
20260831070543 70 135 3.0 3.0 0.00 0.00 0.00 41 1013.7
20260831070142 70 130 2.0 3.0 0.00 0.00 0.00 40 1013.7
20260831065742 70 135 3.0 3.0 0.00 0.00 0.00 40 1013.7
20260831065340 70 135 2.0 3.0 0.00 0.00 0.00 40 1013.7
20260831064538 70 110 2.0 2.0 0.00 0.00 0.00 40 1013.8
20260831064135 70 60 1.0 2.0 0.00 0.00 0.00 40 1013.7
20260831063333 70 45 0.0 1.0 0.00 0.00 0.00 40 1013.7
20260831062932 71 40 0.0 1.0 0.00 0.00 0.00 40 1013.8
20260831062531 71 135 1.0 2.0 0.00 0.00 0.00 40 1013.7
20260831062129 71 137 1.0 2.0 0.00 0.00 0.00 39 1013.7
20260831061727 71 171 1.0 2.0 0.00 0.00 0.00 39 1013.8
20260831061326 72 135 2.0 2.0 0.00 0.00 0.00 39 1013.8
20260831060928 72 135 1.0 1.0 0.00 0.00 0.00 39 1013.8
20260831060124 72 135 1.0 1.0 0.00 0.00 0.00 39 1013.8
20260831055722 72 135 2.0 2.0 0.00 0.00 0.00 39 1013.7
20260831055323 72 135 1.0 2.0 0.00 0.00 0.00 39 1013.8
20260831054919 72 121 1.0 1.0 0.00 0.00 0.00 38 1013.7
20260831054116 72 135 2.0 2.0 0.00 0.00 0.00 38 1013.7
20260831053715 73 135 1.0 1.0 0.00 0.00 0.00 38 1013.7
20260831053314 73 159 0.0 2.0 0.00 0.00 0.00 38 1013.7
20260831052110 73 135 1.0 2.0 0.00 0.00 0.00 38 1013.7
20260831051709 73 135 2.0 3.0 0.00 0.00 0.00 37 1013.7
20260831050906 73 135 3.0 3.0 0.00 0.00 0.00 37 1013.6
20260831050103 73 135 2.0 3.0 0.00 0.00 0.00 37 1013.6
20260831045703 74 135 3.0 4.0 0.00 0.00 0.00 37 1013.7
20260831044900 74 78 3.0 3.0 0.00 0.00 0.00 36 1013.6
20260831044459 74 76 2.0 2.0 0.00 0.00 0.00 36 1013.5
20260831044057 74 49 1.0 2.0 0.00 0.00 0.00 36 1013.5
20260831043655 74 38 2.0 2.0 0.00 0.00 0.00 36 1013.4
20260831043254 74 42 1.0 1.0 0.00 0.00 0.00 36 1013.5
20260831042853 75 38 1.0 1.0 0.00 0.00 0.00 36 1013.4
20260831042452 75 60 1.0 1.0 0.00 0.00 0.00 36 1013.5
20260831042052 0 83 0.0 1.0 0.75 0.00 0.50 35 0.1
20260831041649 75 99 1.0 2.0 0.00 0.00 0.00 35 1013.3
20260831041248 75 112 2.0 2.0 0.00 0.00 0.00 35 1013.3
20260831040847 76 135 2.0 2.0 0.00 0.00 0.00 35 1013.3
20260831040447 76 137 2.0 2.0 0.00 0.00 0.00 35 1013.2
20260831040045 76 130 1.0 3.0 0.00 0.00 0.00 35 1013.3
20260831035643 76 123 3.0 3.0 0.00 0.00 0.00 35 1013.1
20260831035241 76 76 2.0 2.0 0.00 0.00 0.00 34 1013.1
20260831034840 76 135 2.0 3.0 0.00 0.00 0.00 34 1013.0
20260831034038 76 78 3.0 4.0 0.00 0.00 0.00 34 1012.8
20260831033235 76 130 4.0 4.0 0.00 0.00 0.00 34 1012.8
20260831032438 76 54 1.0 3.0 0.00 0.00 0.00 33 1012.6
20260831032031 76 137 2.0 2.0 0.00 0.00 0.00 33 1012.5
20260831031630 76 146 2.0 4.0 0.00 0.00 0.00 33 1012.5
20260831031230 76 153 3.0 3.0 0.00 0.00 0.00 33 1012.4
20260831030828 76 135 4.0 5.0 0.00 0.00 0.00 33 1012.4
20260831030427 77 137 4.0 6.0 0.00 0.00 0.00 32 1012.4
20260831030026 77 135 6.0 6.0 0.00 0.00 0.00 32 1012.3
20260831025222 77 135 4.0 5.0 0.00 0.00 0.00 32 1012.3
20260831024821 78 139 5.0 5.0 0.00 0.00 0.00 31 1012.2
20260831024423 78 150 4.0 6.0 0.00 0.00 0.00 31 1012.2
20260831024018 78 137 5.0 6.0 0.00 0.00 0.00 30 1012.3
20260831023216 79 128 6.0 9.0 0.00 0.00 0.00 30 1012.1
20260831022815 79 137 7.0 9.0 0.00 0.00 0.00 29 1012.0
20260831022415 80 139 5.0 9.0 0.00 0.00 0.00 29 1011.9
20260831022012 80 135 5.0 6.0 0.00 0.00 0.00 29 1012.0
20260831021611 80 157 4.0 8.0 0.00 0.00 0.00 28 1011.8
20260831020811 81 135 7.0 7.0 0.00 0.00 0.00 28 1011.8
20260831015604 82 137 7.0 7.0 0.00 0.00 0.00 27 1011.8
20260831015206 82 141 8.0 9.0 0.00 0.00 0.00 26 1011.8
20260831014801 83 130 9.0 9.0 0.00 0.00 0.00 25 1011.8
20260831014400 83 119 5.0 7.0 0.00 0.00 0.00 25 1011.8
20260831013959 84 114 6.0 9.0 0.00 0.00 0.00 25 1011.8
20260831013559 84 135 6.0 9.0 0.00 0.00 0.00 25 1011.9
20260831012755 85 135 9.0 10.0 0.00 0.00 0.00 24 1011.9
20260831012354 86 135 9.0 9.0 0.00 0.00 0.00 24 1011.8
20260831011150 88 117 7.0 10.0 0.00 0.00 0.00 23 1011.7
20260831010751 89 160 3.0 5.0 0.00 0.00 0.00 23 1011.7
20260831010347 88 139 3.0 9.0 0.00 0.00 0.00 23 1011.8
20260831005946 88 146 6.0 8.0 0.00 0.00 0.00 23 1011.8
20260831005546 89 135 7.0 12.0 0.00 0.00 0.00 23 1011.9
20260831005144 89 150 7.0 11.0 0.00 0.00 0.00 22 1011.9
20260831004744 90 144 3.0 7.0 0.00 0.00 0.00 22 1011.9
20260831004341 90 135 5.0 9.0 0.00 0.00 0.00 22 1011.8
20260831003939 90 144 9.0 9.0 0.00 0.00 0.00 22 1011.9
20260831003137 91 150 7.0 7.0 0.00 0.00 0.00 21 1011.8
20260831002736 91 164 4.0 9.0 0.00 0.00 0.00 21 1011.8
20260831002335 91 144 6.0 10.0 0.00 0.00 0.00 20 1011.7
20260831001935 93 141 5.0 7.0 0.00 0.00 0.00 20 1011.8
20260831001532 93 180 8.0 9.0 0.00 0.00 0.00 20 1011.8
20260831001131 93 177 6.0 6.0 0.00 0.00 0.00 20 1011.7
20260831000730 93 171 4.0 7.0 0.00 0.00 0.00 20 1011.8
20260831000329 93 182 4.0 7.0 0.00 0.00 0.00 20 1011.8
20260830235927 93 155 6.0 9.0 0.00 0.00 0.00 20 1011.8
20260830235529 93 177 4.0 8.0 0.00 0.00 0.00 20 1011.8
20260830234322 96 165 3.0 8.0 0.00 0.00 0.00 19 1011.8
20260830233921 97 155 6.0 9.0 0.00 0.00 0.00 19 1011.8
20260830233119 98 162 6.0 8.0 0.00 0.00 0.00 20 1011.8
20260830232716 99 195 4.0 9.0 0.00 0.00 0.00 20 1012.0
20260830232315 100 184 7.0 8.0 0.00 0.00 0.00 20 1011.9
20260830231914 100 186 7.0 10.0 0.00 0.00 0.00 20 1011.9
20260830230712 100 144 3.0 7.0 0.00 0.00 0.00 20 1012.1
20260830230309 100 180 5.0 7.0 0.00 0.00 0.00 20 1012.1
20260830225907 100 193 4.0 6.0 0.00 0.00 0.00 20 1012.0
20260830225105 99 171 2.0 8.0 0.00 0.00 0.00 20 1012.3
20260830223901 97 148 4.0 13.0 0.00 0.00 0.00 20 1012.4
20260830223500 96 193 8.0 17.0 0.00 0.00 0.00 20 1012.5
20260830223059 97 150 9.0 16.0 0.00 0.00 0.00 20 1012.5
20260830222658 98 166 7.0 13.0 0.00 0.00 0.00 20 1012.5
20260830221855 96 141 7.0 11.0 0.00 0.00 0.00 20 1012.7
20260830221453 95 182 7.0 12.0 0.00 0.00 0.00 20 1012.7
20260830221052 95 123 9.0 11.0 0.00 0.00 0.00 20 1012.8
20260830220651 96 162 5.0 15.0 0.00 0.00 0.00 20 1012.8
20260830220251 97 177 4.0 9.0 0.00 0.00 0.00 20 1012.9
20260830215849 96 186 8.0 12.0 0.00 0.00 0.00 20 1012.9
20260830215447 96 128 9.0 14.0 0.00 0.00 0.00 20 1013.0
20260830215050 97 189 7.0 11.0 0.00 0.00 0.00 20 1013.0
20260830214646 94 130 8.0 0.0 0.00 0.00 0.00 20 101.3
20260830214644 98 130 8.0 11.0 0.00 0.00 0.00 20 1013.1
20260830214243 100 150 4.0 10.0 0.00 0.00 0.00 20 1013.1
20260830213842 100 190 7.0 11.0 0.00 0.00 0.00 20 1013.2
20260830213040 101 185 10.0 21.0 0.00 0.00 0.00 19 1013.2
20260830211434 101 182 11.0 11.0 0.00 0.00 0.00 20 1013.5
20260830211033 101 180 6.0 8.0 0.00 0.00 0.00 20 1013.4
20260830210632 101 171 5.0 12.0 0.00 0.00 0.00 20 1013.4
20260830210230 101 180 7.0 8.0 0.00 0.00 0.00 20 1013.4
20260830205831 101 182 4.0 8.0 0.00 0.00 0.00 20 1013.5
20260830205829 101 182 4.0 8.0 0.00 0.00 0.00 20 1013.5
20260830205428 101 182 7.0 9.0 0.00 0.00 0.00 20 1013.5
20260830205027 100 180 6.0 11.0 0.00 0.00 0.00 20 1013.5
20260830204626 101 175 4.0 6.0 0.00 0.00 0.00 20 1013.5
20260830203421 99 186 6.0 16.0 0.00 0.00 0.00 20 1013.7
20260830203020 100 182 6.0 9.0 0.00 0.00 0.00 21 1013.7
20260830202619 99 166 4.0 8.0 0.00 0.00 0.00 21 1013.7
20260830202218 99 160 3.0 10.0 0.00 0.00 0.00 21 1013.7
20260830201416 101 216 2.0 7.0 0.00 0.00 0.00 21 1013.8
20260830201013 99 164 3.0 4.0 0.00 0.00 0.00 21 1013.7
20260830200211 99 135 6.0 9.0 0.00 0.00 0.00 21 1013.7
20260830195810 100 135 8.0 8.0 0.00 0.00 0.00 22 1013.7
20260830195409 101 126 3.0 9.0 0.00 0.00 0.00 22 1013.7
20260830195009 101 174 5.0 9.0 0.00 0.00 0.00 22 1013.9
20260830194205 101 184 7.0 8.0 0.00 0.00 0.00 22 1013.9
20260830193001 97 155 2.0 3.0 0.00 0.00 0.00 23 1014.0
20260830192559 95 135 3.0 10.0 0.00 0.00 0.00 23 1014.0
20260830192158 95 162 4.0 10.0 0.00 0.00 0.00 23 1014.0
20260830191758 94 256 2.0 12.0 0.00 0.00 0.00 23 1014.1
20260830191357 93 117 6.0 16.0 0.00 0.00 0.00 23 1.0
20260830190955 94 135 3.0 12.0 0.00 0.00 0.00 23 1014.1
20260830190553 93 135 7.0 15.0 0.00 0.00 0.00 23 1014.1
20260830185750 93 90 9.0 10.0 0.00 0.00 0.00 23 1014.1
20260830185350 95 110 5.0 9.0 0.00 0.00 0.00 24 1014.2
20260830184948 98 114 6.0 8.0 0.00 0.00 0.00 24 1014.3
20260830184547 99 279 2.0 7.0 0.00 0.00 0.00 24 1014.1
20260830184145 98 180 6.0 9.0 0.00 0.00 0.00 25 1014.2
20260830182943 96 150 6.0 9.0 0.00 0.00 0.00 25 1014.2
20260830180534 93 102 5.0 6.0 0.00 0.00 0.00 27 1014.3
20260830180133 93 184 3.0 8.0 0.00 0.00 0.00 27 1014.3
20260830174527 90 81 4.0 7.0 0.00 0.00 0.00 27 1014.2
20260830174128 91 60 3.0 6.0 0.00 0.00 0.00 28 1014.0
20260830172923 94 145 1.0 5.0 0.00 0.00 0.00 29 1014.2
20260830172522 93 182 2.0 6.0 0.00 0.00 0.00 30 1014.2
20260830172120 90 186 4.0 8.0 0.00 0.00 0.00 30 1014.3
20260830171317 90 80 2.0 5.0 0.00 0.00 0.00 31 1014.2
20260830170916 90 22 1.0 2.0 0.00 0.00 0.00 31 1014.3
20260830170113 87 74 1.0 4.0 0.00 0.00 0.00 31 1014.2
20260830165712 87 87 4.0 4.0 0.00 0.00 0.00 31 1014.2
20260830165310 88 292 1.0 3.0 0.00 0.00 0.00 32 1014.2
20260830164909 87 157 1.0 3.0 0.00 0.00 0.00 32 1014.2
20260830164510 86 301 1.0 3.0 0.00 0.00 0.00 32 1014.2
20260830163705 88 105 3.0 3.0 0.00 0.00 0.00 33 1014.2
20260830163304 88 159 0.0 3.0 0.00 0.00 0.00 33 1014.1
20260830162903 87 272 2.0 2.0 0.00 0.00 0.00 34 1014.3
20260830162102 0 53 602.0 0.0 0.00 0.00 0.00
20260830161659 86 234 1.0 2.0 0.00 0.00 0.00 36 1014.4
20260830161257 85 135 2.0 6.0 0.00 0.00 0.00 36 1014.3
20260830160858 85 90 4.0 6.0 0.00 0.00 0.00 37 1014.3
20260830160054 85 242 1.0 2.0 0.00 0.00 0.00 38 1014.3
20260830155655 85 297 1.0 1.0 0.00 0.00 0.00 39 1014.3
20260830155252 82 218 0.0 3.0 0.00 0.00 0.00 39 1014.4
20260830154850 80 135 4.0 5.0 0.00 0.00 0.00 40 1014.5
20260830154450 80 139 3.0 4.0 0.00 0.00 0.00 41 1014.4
20260830154047 79 135 4.0 5.0 0.00 0.00 0.00 41 1014.4
20260830153246 79 137 1.0 7.0 0.00 0.00 0.00 41 1014.4
20260830152844 79 99 5.0 6.0 0.00 0.00 0.00 42 1014.5
20260830152442 78 114 4.0 4.0 0.00 0.00 0.00 43 1014.4
20260830152041 77 139 3.0 5.0 0.00 0.00 0.00 42 1014.4
20260830151640 77 114 2.0 3.0 0.00 0.00 0.00 43 1014.4
20260830151239 76 105 1.0 3.0 0.00 0.00 0.00 43 1014.5
20260830150837 76 90 2.0 3.0 0.00 0.00 0.00 44 1014.5
20260830150436 76 137 2.0 3.0 0.00 0.00 0.00 44 1014.6
20260830145634 75 50 0.0 1.0 0.00 0.00 0.00 45 1014.5
20260830145232 75 78 0.0 1.0 0.00 0.00 0.00 45 1014.6
20260830144831 74 135 0.0 1.0 0.00 0.00 0.00 46 1014.5
20260830144430 74 137 1.0 1.0 0.00 0.00 0.00 46 1014.5
20260830144028 74 180 0.0 0.0 0.00 0.00 0.00 46 1014.4
20260830143627 73 87 0.0 0.0 0.00 0.00 0.00 47 1014.3
20260830143227 72 312 0.0 1.0 0.00 0.00 0.00 47 1014.3
20260830142423 70 299 1.0 1.0 0.00 0.00 0.00 47 1014.3
20260830142022 70 324 0.0 0.0 0.00 0.00 0.00 47 1014.3
20260830141621 69 303 0.0 0.0 0.00 0.00 0.00 47 1014.3
20260830141219 68 333 0.0 1.0 0.00 0.00 0.00 47 1014.3
20260830140417 67 137 0.0 0.0 0.00 0.00 0.00 48 1014.1
20260830140016 67 279 0.0 0.0 0.00 0.00 0.00 48 1014.1
20260830135616 0 294 0.0 0.0 0.00 0.00 0.00 1014.1
20260830134811 67 301 0.0 1.0 0.00 0.00 0.00 48 1013.9
20260830134012 67 288 0.0 0.0 0.00 0.00 0.00 47 1013.9
20260830133608 67 312 0.0 0.0 0.00 0.00 0.00 47 1013.8
20260830132806 67 274 0.0 0.0 0.00 0.00 0.00 47 1013.7
20260830132403 67 279 0.0 0.0 0.00 0.00 0.00 47 1013.6
20260830131601 67 292 0.0 0.0 0.00 0.00 0.00 47 1013.6
20260830131201 67 297 0.0 0.0 0.00 0.00 0.00 47 1013.4
20260830130802 67 306 0.0 0.0 0.00 0.00 0.00 47 1013.5
20260830125956 67 270 0.0 0.0 0.00 0.00 0.00 47 1013.4
20260830125154 67 234 0.0 0.0 0.00 0.00 0.00 47 1013.4
20260830124753 67 298 0.0 1.0 0.00 0.00 0.00 47 1013.3
20260830124352 67 279 0.0 0.0 0.00 0.00 0.00 46
20260830123950 67 270 0.0 0.0 0.00 0.00 0.00 46 1013.3
20260830123548 67 308 0.0 0.0 0.00 0.00 0.00 46 1013.3
20260830123147 67 303 0.0 0.0 0.00 0.00 0.00 46 1013.2
20260830121944 67 288 0.0 0.0 0.00 0.00 0.00 46 1013.3
20260830121547 67 299 0.0 0.0 0.00 0.00 0.00 46 1013.2
20260830121140 67 306 0.0 0.0 0.00 0.00 0.00 46 1013.4
20260830120739 67 285 0.0 0.0 0.00 0.00 0.00 46 1013.3
20260830120338 67 274 0.0 0.0 0.00 0.00 0.00 46 1013.3
20260830115937 67 288 0.0 0.0 0.00 0.00 0.00 46 1013.3
20260830115536 67 279 0.0 0.0 0.00 0.00 0.00 46 1013.3
20260830115135 67 288 0.0 0.0 0.00 0.00 0.00 46 1013.3
20260830114733 67 303 0.0 0.0 0.00 0.00 0.00 45 1013.3
20260830114332 68 285 0.0 0.0 0.00 0.00 0.00 45 1013.1
20260830113931 68 263 0.0 0.0 0.00 0.00 0.00 45 1013.2
20260830112728 68 270 0.0 1.0 0.00 0.00 0.00 45 1013.0
20260830112325 68 288 0.0 0.0 0.00 0.00 0.00 45 1013.0
20260830111927 68 270 0.0 0.0 0.00 0.00 0.00 45 1013.0
20260830111122 68 230 0.0 0.0 0.00 0.00 0.00 45 1013.1
20260830110721 68 283 0.0 1.0 0.00 0.00 0.00 45 1013.0
20260830110319 68 279 0.0 0.0 0.00 0.00 0.00 45 1013.0
20260830105917 68 292 0.0 1.0 0.00 0.00 0.00 45 1013.0
20260830105516 68 292 0.0 0.0 0.00 0.00 0.00 44 1013.2
20260830105115 69 274 0.0 0.0 0.00 0.00 0.00 44 1013.1
20260830103912 68 335 1.0 1.0 0.00 0.00 0.00 44 1013.1
20260830103510 69 42 0.0 0.0 0.00 0.00 0.00 44 1013.1